Regional Weather Roundup
Issued by NWS

Home | Current Version | Previous Version | Text Only | Print | Product List | Glossary On
Versions: 1 2 3 4 5 6 7 8 9 10 11 12 13 14 15 16 17 18 19 20 21 22 23 24 25 26 27 28 29 30 31 32 33 34 35 36 37 38 39 40 41 42 43 44 45 46 47 48 49 50
243
ASCA42 TJSJ 222010
RWRPR
PUERTO RICO/U.S. VIRGIN ISLANDS HOURLY WEATHER ROUNDUP
NATIONAL WEATHER SERVICE SAN JUAN PR
400 PM AST TUE AUG 22 2017

PRZ001>002-007>008-010-222100-
PUERTO RICO

CITY           SKY/WX    TMP DP  RH WIND       PRES   REMARKS
SAN JUAN LMM   MOSUNNY   88  79  74 E16       29.95S HX 102
AGUADILLA      PTSUNNY   84  75  74 E12       29.98R HX  92
CEIBA          PTSUNNY   84  79  84 NE9       29.97F HX  96
$$

VIZ001>002-222100-
U.S. VIRGIN ISLANDS

CITY           SKY/WX    TMP DP  RH WIND       PRES   REMARKS
CHARLOTTE AMA  MOSUNNY   88  77  70 NE10      29.93F HX 100
CHRISTIANSTED  MOSUNNY   86  77  74 E10       29.94F HX  97
$$

HOURLY WEATHER ROUNDUP FOR THE NEWS MEDIA

CITY           SKY/WX    TMP DP  RH WIND       PRES   REMARKS
ORLANDO        SUNNY     92  70  48 E14G20    30.02F HX  97
NEW YORK       MOSUNNY   84  77  79 S22       29.87F HX  94
NEWARK         MOSUNNY   90  71  53 SW16G23   29.83F HX  96
CHICAGO        MOSUNNY   80  56  43 NW18G25   29.90S
HARTFORD       CLOUDY    77  73  87 S15G22    29.88F
BOSTON         MOSUNNY   90  69  50 S20G29    29.80F HX  94
DALLAS         MOSUNNY   97  67  37 NW3       30.01F HX 101
PHILADELPHIA   MOSUNNY   90  72  55 S16       29.87F HX  97
LOS ANGELES    MOSUNNY   74  63  68 W15       30.00F
WASHINGTON DC  MOSUNNY   91  74  57 S16G22    29.87F HX 100



USA.gov is the U.S. government's official web portal to all federal, state and local government web resources and services.